Regional Weather Roundup
Issued by NWS

Home | Current Version | Previous Version | Graphics & Text | Print | Product List | Glossary Off
Versions: 1 2 3 4 5 6 7 8 9 10 11 12 13 14 15 16 17 18 19 20 21 22 23 24 25 26 27 28 29 30 31 32 33 34 35 36 37 38 39 40 41 42 43 44 45 46 47 48 49 50

000
ASUS43 KMPX 080910
RWRMN
WEATHER ROUNDUP FOR MINNESOTA
NATIONAL WEATHER SERVICE TWIN CITIES/CHANHASSEN MN
300 AM CST THU DEC 08 2016


NOTE: "FAIR" INDICATES FEW OR NO CLOUDS BELOW 12,000 FEET WITH NO
SIGNIFICANT WEATHER AND/OR OBSTRUCTIONS TO VISIBILITY. N/A MEANS
CURRENT SKY AND/OR WEATHER CONDITIONS ARE NOT AVAILABLE.

MNZ060>063-068>070-081000-
   Twin Cities Metro

CITY           SKY/WX    TMP DP  RH WIND       PRES   REMARKS
TWIN CITIES    LGT SNOW  17  11  77 W14G21    30.18R WCI   3
ST PAUL        LGT SNOW  17  13  84 W13       30.19R FOG     WCI   4
CRYSTAL        CLOUDY    17  10  74 W14       30.16R WCI   3
BLAINE         CLOUDY    18  14  86 W13G18    30.15R WCI   4
LAKEVILLE      LGT SNOW  12  10  92 W15G22    30.18R WCI  -4
EDEN PRAIRIE   LGT SNOW  16  10  77 W12G22    30.18R WCI   3
SOUTH ST PAUL  CLOUDY    17  12  80 W7        30.17S HAZE    WCI   8
LAKE ELMO      LGT SNOW  18  14  86 W12       30.16R WCI   5
$$
MNZ001>005-007-008-013>017-022>024-027-028-081000-
   Northwest Minnesota

CITY           SKY/WX    TMP DP  RH WIND       PRES   REMARKS
BEMIDJI        LGT SNOW  17  13  87 NW16      30.16R WCI   1
HALLOCK          N/A    N/A N/A N/A NW20      30.32R
ROSEAU         FLURRIES  19  16  86 NW13      30.23R WCI   7
WARROAD        LGT SNOW  18  16  93 NW13G22   30.21R WCI   4
THIEF RVR FALL FLURRIES  17  14  88 NW22      30.27R WCI   0
CROOKSTON      LGT SNOW  18  16  93 N22G28    30.31R WCI   0
FOSSTON        CLOUDY    16  12  86 NW15G21   30.23R WCI   1
DETROIT LAKES  LGT SNOW  19  18  93 NW21G26   30.23R WCI   3
MOORHEAD       MIX PCPN  16  10  79 NW23G29   30.32R WCI  -2
PARK RAPIDS    FLURRIES  18  10  71 NW16      30.16R WCI   3
$$
MNZ006-009>011-018-025>026-081000-
   North Central Minnesota

CITY           SKY/WX    TMP DP  RH WIND       PRES   REMARKS
BAUDETTE       LGT SNOW  21  16  81 NW12      30.15R WCI   9
FLAG ISLAND    CLOUDY    21  16  79 NW23      30.18R WCI   5
INTL FALLS     CLOUDY    19  14  81 NW12      30.10R WCI   7
WASKISH        LGT SNOW  18  16  93 NW12G18   30.16R WCI   5
BIG FORK       FLURRIES  19  16  86 NW6       30.10R WCI  11
LONGVILLE      LGT SNOW  19  16  86 NW12G18   30.13R WCI   7
GRAND RAPIDS   LGT SNOW  20  16  84 NW17      30.10R FOG     WCI   5
CRANE LAKE     CLOUDY    19  16  86 N9G17     30.07R WCI   9
ORR            LGT SNOW  19  16  86 NW8       30.03R WCI   9
COOK           LGT SNOW  19  18  93 NW7       30.05R WCI  10
$$
MNZ012-019>021-037-081000-
   Northeast Minnesota

CITY           SKY/WX    TMP DP  RH WIND       PRES   REMARKS
DULUTH         LGT SNOW  22  18  85 NW9       30.00R FOG     WCI  12
ELY            MOCLDY    19  18  93 NW8       29.99R WCI   9
HIBBING        FLURRIES  19  15  84 NW16      30.04R WCI   4
EVELETH        MIX PCPN  22  18  83 NW9G18    30.03R WCI  12
DULUTH HARBOR  CLOUDY    27  21  80 NW14      30.05R WCI  15
TWO HARBORS    MOCLDY    27  18  69 NW8       29.98R WCI  18
SILVER BAY     CLOUDY    25  18  74 NW5       29.96R WCI  19
GRAND MARAIS     N/A     27  18  69 VRB6      29.93R WCI  20
G MARAIS ARPRT LGT SNOW  18  12  79 NW14G28   29.87R WCI   4
$$
MNZ029>031-032-039>041-046>048-054>057-064-081000-
   West Central Minnesota

CITY           SKY/WX    TMP DP  RH WIND       PRES   REMARKS
FERGUS FALLS   LGT SNOW  16  12  86 NW24      30.32R WCI  -3
WHEATON        CLOUDY    16  12  86 W20G29    30.35R WCI  -1
MORRIS         LGT SNOW  14  10  85 NW26G33   30.27R WCI  -6
ALEXANDRIA     LGT SNOW  15  12  88 NW17      30.21R FOG     WCI  -1
ELBOW LAKE     LGT SNOW  13  11  92 NW23G29   30.27R WCI  -6
WADENA         CLOUDY    18  12  79 NW15G28   30.18R WCI   3
GLENWOOD       CLOUDY    14  10  85 W22       30.21R FOG     WCI  -4
APPLETON       CLOUDY    16  10  79 NW16G30   30.31R WCI   0
BENSON         FLURRIES  14  10  85 N22       30.27R WCI  -4
ORTONVILLE     FLURRIES  14   9  79 MISG      30.32R
MADISON        FLURRIES  18  12  79 NW20G29   30.34R WCI   1
WILLMAR        LGT SNOW  16  12  86 NW20G29   30.26R WCI  -1
$$
MNZ033>034-036-042>043-049>051-058-059-081000-
   Central Minnesota

CITY           SKY/WX    TMP DP  RH WIND       PRES   REMARKS
ST CLOUD       MOCLDY    16  12  84 W15       30.16R WCI   1
PAYNESVILLE    MOCLDY    14  10  85 W18G25    30.21R WCI  -3
AITKIN         MIX PCPN  23  16  74 NW8       30.09R WCI  14
PINE RIVER     CLOUDY    19  16  86 NW12      30.17R WCI   7
BRAINERD       CLOUDY    20  14  77 NW15G23   30.14R WCI   6
STAPLES        CLOUDY    16  12  86 NW13      30.16R WCI   2
LONG PRAIRIE   CLOUDY    16  12  86 W14       30.17S WCI   1
LITTLE FALLS   FLURRIES  19  14  79 NW6       30.16R WCI  11
LITCHFIELD     MOCLDY    16  10  79 NW17G25   30.21R WCI   0
BUFFALO        CLOUDY    16  11  80 W16G25    30.19R WCI   1
MAPLE LAKE     CLOUDY    17  13  86 W13       30.19R WCI   3
HUTCHINSON     CLOUDY    16  11  82 W17G33    30.22S WCI   0
$$
MNZ037-044-045-052-053-081000-
   East Central Minnesota

CITY           SKY/WX    TMP DP  RH WIND       PRES   REMARKS
PRINCETON      CLEAR     18  14  86 W14       30.13R WCI   4
MORA           LGT SNOW  19  16  86 W9        30.12R WCI   9
CAMBRIDGE      FLURRIES  19  12  73 W8        30.11S WCI   9
RUSH CITY      CLOUDY    18  14  86 W8G17     30.11S WCI   7
MOOSE LAKE     LGT SNOW  23  19  86 NW7       30.05R WCI  15
HINCKLEY       LGT SNOW  23  21  93 W3        30.08S
CLOQUET        FLURRIES  21  18  86 NW12G18   30.03R WCI   9
MCGREGOR       CLOUDY    23  19  86 NW13G18   30.08R WCI  11
$$
MNZ071>073-080-081-089-090-097-098-081000-
   Southwest Minnesota

CITY           SKY/WX    TMP DP  RH WIND       PRES   REMARKS
MONTEVIDEO     CLOUDY    16  10  79 N17G26    30.32R WCI   0
GRANITE FALLS  LGT SNOW  16  12  86 W17       30.33R WCI   0
CANBY          FLURRIES  14   8  78 NW20      30.35R WCI  -3
MARSHALL       FLURRIES  13   6  74 NW26      30.32R WCI  -7
REDWOOD FALLS  LGT SNOW  14   8  77 W17G28    30.29R WCI  -3
OLIVIA         LGT SNOW  16  12  86 NW18G28   30.26R WCI  -1
PIPESTONE      LGT SNOW   9   3  78 NW21G28   30.33R WCI -11
WINDOM         FLURRIES  12   7  79 W24G32    30.28R WCI  -8
WORTHINGTON    FLURRIES   9   3  77 W26G33    30.31R WCI -13
JACKSON        FLURRIES  10   5  79 W21G26    30.29R WCI  -9
TRACY          LGT SNOW  13   8  80 NW18G25   30.31R WCI  -4
SLAYTON        FLURRIES   9   5  82 W24G30    30.31R WCI -12
$$
MNZ065>067-074>077-082>085-091>093-081000-
   South Central Minnesota

CITY           SKY/WX    TMP DP  RH WIND       PRES   REMARKS
MANKATO        LGT SNOW  14   9  80 W21       30.24R WCI  -4
NEW ULM        LGT SNOW  12   9  85 W22G29    30.26R WCI  -7
ST JAMES       FLURRIES  12   9  85 W23G29    30.29R WCI  -7
FAIRMONT       FLURRIES  12   6  77 W24       30.28R WCI  -8
GLENCOE        LGT SNOW  16  13  90 W17G23    30.22R WCI   0
OWATONNA       LGT SNOW  14   9  79 W17G25    30.20S WCI  -3
WASECA         LGT SNOW  14  10  85 W16G24    30.23S WCI  -2
ALBERT LEA     LGT SNOW  16  10  79 W13G23    30.22S WCI   2
$$
MNZ078>079-086>088-094>096-081000-
   Southeast Minnesota

CITY           SKY/WX    TMP DP  RH WIND       PRES   REMARKS
ROCHESTER      LGT SNOW  13   8  81 W20       30.15S WCI  -5
RED WING       LGT SNOW  16  10  79 W16       30.16R WCI   0
STANTON        FLURRIES  16  10  80 W13G22    30.18S WCI   2
DODGE CENTER   LGT SNOW  12   9  85 W17       30.17R WCI  -5
WINONA         FLURRIES  18  12  79 NW13      30.18S WCI   4
AUSTIN         FLURRIES  12   7  79 W18G26    30.20S WCI  -5
PRESTON        LGT SNOW  11   7  82 W21G26    30.17R WCI  -7
$$
ABBREVIATIONS USED IN REMARKS
   TC - TEMPERATURES IN CELSIUS
  WCI - WIND CHILL INDEX
   HX - HEAT INDEX
  VSB - VISIBILITY
$$




USA.gov is the U.S. government's official web portal to all federal, state and local government web resources and services.